TimeHST,TemperatureF,Dew PointF,Humidity,Sea Level PressureIn,VisibilityMPH,Wind Direction,Wind SpeedMPH,Gust SpeedMPH,PrecipitationIn,Events,Conditions,WindDirDegrees,DateUTC
1:54 AM,68.0,59.0,73,30.02,10.0,North,5.8,-,N/A,,Clear,350,2013-04-02 11:54:00
2:54 AM,66.9,59.0,76,30.01,10.0,NW,3.5,-,0.00,,Clear,320,2013-04-02 12:54:00
3:54 AM,64.9,57.0,75,30.00,10.0,NNW,5.8,-,N/A,,Clear,330,2013-04-02 13:54:00
4:54 AM,63.0,57.0,81,30.01,10.0,Variable,5.8,-,N/A,,Clear,0,2013-04-02 14:54:00
5:54 AM,66.9,59.0,76,30.02,10.0,NNW,9.2,-,N/A,,Clear,330,2013-04-02 15:54:00
6:54 AM,68.0,60.1,76,30.04,10.0,NNW,5.8,-,N/A,,Partly Cloudy,330,2013-04-02 16:54:00
7:54 AM,72.0,57.0,59,30.06,10.0,NNW,10.4,-,N/A,,Scattered Clouds,340,2013-04-02 17:54:00
8:54 AM,73.9,57.0,55,30.08,10.0,North,11.5,-,N/A,,Scattered Clouds,10,2013-04-02 18:54:00
9:54 AM,75.0,55.9,51,30.09,10.0,North,12.7,-,N/A,,Scattered Clouds,10,2013-04-02 19:54:00
10:54 AM,77.0,57.0,50,30.09,10.0,North,10.4,-,N/A,,Scattered Clouds,10,2013-04-02 20:54:00
11:54 AM,78.1,59.0,52,30.08,10.0,North,12.7,-,N/A,,Partly Cloudy,360,2013-04-02 21:54:00
12:54 PM,75.9,57.9,54,30.06,10.0,North,11.5,20.7,N/A,,Scattered Clouds,10,2013-04-02 22:54:00
1:54 PM,78.1,57.9,50,30.04,10.0,North,12.7,-,N/A,,Partly Cloudy,350,2013-04-02 23:54:00
2:54 PM,75.9,57.9,54,30.03,10.0,NNE,12.7,-,N/A,,Partly Cloudy,20,2013-04-03 00:54:00
3:54 PM,75.9,57.0,52,30.03,10.0,NNE,12.7,-,N/A,,Partly Cloudy,20,2013-04-03 01:54:00
4:54 PM,75.0,55.0,50,30.04,10.0,NNE,11.5,-,N/A,,Partly Cloudy,20,2013-04-03 02:54:00
5:54 PM,73.0,55.9,55,30.05,10.0,North,11.5,-,N/A,,Partly Cloudy,10,2013-04-03 03:54:00
6:54 PM,71.1,57.0,61,30.07,10.0,NNE,12.7,-,N/A,,Partly Cloudy,30,2013-04-03 04:54:00
7:54 PM,68.0,57.9,70,30.08,10.0,East,6.9,-,N/A,,Scattered Clouds,80,2013-04-03 05:54:00
8:54 PM,64.0,57.0,78,30.10,10.0,ESE,6.9,-,N/A,,Clear,110,2013-04-03 06:54:00
9:54 PM,63.0,57.0,81,30.11,10.0,Calm,Calm,-,N/A,,Partly Cloudy,0,2013-04-03 07:54:00
10:54 PM,63.0,55.9,78,30.12,10.0,Calm,Calm,-,N/A,,Partly Cloudy,0,2013-04-03 08:54:00
11:54 PM,63.0,57.9,84,30.10,10.0,NNE,3.5,-,N/A,,Clear,20,2013-04-03 09:54:00